This is the latest recevied weather packets stored in our database for station/object AB4KN. If no packets are shown the sender has not sent any weather packets the latest 10 day(s).
| Time | Temp. | Humidity | Pressure | Rain* | Wind** | Luminosity | Snow |
|---|---|---|---|---|---|---|---|
| 1777401740 | 15.56° C | 89% | 1026.5 hPa | 0 mm | - | 167 W/m² | - |
| 1777401436 | 15.56° C | 89% | 1026.3 hPa | 0 mm | - | 74 W/m² | - |
| 1777401132 | 15.56° C | 89% | 1026.7 hPa | 0 mm | - | 101 W/m² | - |
| 1777400827 | 15.56° C | 89% | 1026.6 hPa | 0 mm | - | 88 W/m² | - |
| 1777400524 | 15.56° C | 89% | 1026.2 hPa | 0 mm | - | 75 W/m² | - |
| 1777400221 | 15.56° C | 89% | 1025.9 hPa | 0 mm | - | 125 W/m² | - |
| 1777399917 | 15° C | 89% | 1025.7 hPa | 0 mm | - | 95 W/m² | - |
| 1777399614 | 15° C | 89% | 1026 hPa | 0 mm | - | 43 W/m² | - |
| 1777399311 | 15° C | 89% | 1026.2 hPa | 0 mm | - | 41 W/m² | - |
| 1777399009 | 15° C | 89% | 1025.8 hPa | 0 mm | - | 49 W/m² | - |
| 1777398706 | 15° C | 89% | 1026.1 hPa | 0 mm | - | 39 W/m² | - |
| 1777398402 | 15° C | 89% | 1026.7 hPa | 0 mm | - | 41 W/m² | - |
| 1777398099 | 15° C | 89% | 1026.2 hPa | 0 mm | - | 69 W/m² | - |
| 1777397796 | 15° C | 89% | 1026.5 hPa | 0 mm | - | 68 W/m² | - |
| 1777397492 | 15° C | 89% | 1026.9 hPa | 0 mm | - | 57 W/m² | - |
| 1777397188 | 14.44° C | 89% | 1026.8 hPa | 0 mm | - | 49 W/m² | - |
| 1777396885 | 14.44° C | 89% | 1026.2 hPa | 0 mm | - | 49 W/m² | - |
| 1777396581 | 14.44° C | 89% | 1026.1 hPa | 0 mm | - | 60 W/m² | - |
| 1777396278 | 14.44° C | 89% | 1026.3 hPa | 1.78 mm | - | 51 W/m² | - |
| 1777395975 | 14.44° C | 89% | 1026.5 hPa | 1.78 mm | - | 45 W/m² | - |
| 1777395669 | 14.44° C | 89% | 1027 hPa | 1.78 mm | - | 39 W/m² | - |
| 1777395366 | 13.89° C | 89% | 1027.3 hPa | 0 mm | - | 37 W/m² | - |
| 1777395064 | 13.89° C | 89% | 1027 hPa | 0 mm | - | 33 W/m² | - |
| 1777394761 | 13.89° C | 89% | 1027.6 hPa | 1.27 mm | - | 31 W/m² | - |
| 1777394456 | 13.89° C | 89% | 1028 hPa | 1.27 mm | - | 34 W/m² | - |
* Rain latest hour (hover to see other rain measurements)
** Current wind speed in m/s (hover to see current wind gust speed)